When you browse on this site, cookies collect data to enhance your experience and personalize the content and advertising you see.
Visit our Privacy Policy to learn more. By continuing to use the site, you agree to this use of cookies and data.
  • In Lithuania
  • List of Countries
  • For 7 days
  • Water Temperature
  • Satellite Maps
  • Weather Map
  • Weather Widgets
  • user-avatar
    Login

    Hourly Weather Maracaibo

    Today, 16 January, Wednesday

    Time Temperature Precipitation Wind Pressure Humidity
    00:00 +27°C° 0 mm 4 mps 755 mmHg 66%
    01:00 +27°C° 0 mm 4 mps 755 mmHg 66%
    02:00 +27°C° 0 mm 4 mps 755 mmHg 67%
    03:00 +27°C° 0 mm 3 mps 754 mmHg 68%
    04:00 +26°C° 0 mm 3 mps 754 mmHg 70%
    05:00 +26°C° 0 mm 3 mps 755 mmHg 70%
    06:00 +26°C° 0 mm 2 mps 755 mmHg 71%
    07:00 +26°C° 0 mm 2 mps 755 mmHg 71%
    08:00 +28°C° 0 mm 2 mps 755 mmHg 65%
    09:00 +30°C° 0 mm 2 mps 755 mmHg 59%
    10:00 +31°C° 0 mm 1 mps 756 mmHg 53%
    11:00 +32°C° 0 mm 2 mps 755 mmHg 50%
    12:00 +34°C° 0 mm 2 mps 754 mmHg 47%
    13:00 +35°C° 0 mm 2 mps 753 mmHg 44%
    14:00 +35°C° 0 mm 3 mps 753 mmHg 46%
    15:00 +34°C° 0 mm 4 mps 753 mmHg 48%
    16:00 +34°C° 0 mm 4 mps 752 mmHg 51%
    17:00 +33°C° 0 mm 5 mps 752 mmHg 57%
    18:00 +30°C° 0 mm 5 mps 753 mmHg 64%
    19:00 +29°C° 0 mm 6 mps 753 mmHg 71%
    20:00 +29°C° 0 mm 6 mps 754 mmHg 72%
    21:00 +29°C° 0 mm 6 mps 754 mmHg 73%
    22:00 +28°C° 0 mm 6 mps 755 mmHg 74%
    23:00 +28°C° 0 mm 6 mps 755 mmHg 74%

    Tomorrow, 17 January, Thursday

    Time Temperature Precipitation Wind Pressure Humidity
    00:00 +28°C° 0 mm 5 mps 755 mmHg 73%
    01:00 +28°C° 0 mm 5 mps 755 mmHg 73%
    02:00 +28°C° 0 mm 4 mps 754 mmHg 73%
    03:00 +28°C° 0 mm 4 mps 754 mmHg 73%
    04:00 +27°C° 0 mm 4 mps 754 mmHg 73%
    05:00 +28°C° 0 mm 3 mps 754 mmHg 73%
    06:00 +28°C° 0 mm 3 mps 755 mmHg 73%
    07:00 +28°C° 0 mm 3 mps 755 mmHg 73%
    08:00 +29°C° 0 mm 2 mps 755 mmHg 67%
    09:00 +31°C° 0 mm 2 mps 756 mmHg 60%
    10:00 +32°C° 0 mm 2 mps 756 mmHg 54%
    11:00 +34°C° 0 mm 2 mps 755 mmHg 51%
    12:00 +35°C° 0 mm 2 mps 754 mmHg 49%
    13:00 +36°C° 0 mm 2 mps 753 mmHg 46%
    14:00 +35°C° 0 mm 3 mps 753 mmHg 48%
    15:00 +35°C° 0 mm 3 mps 752 mmHg 50%
    16:00 +34°C° 0 mm 4 mps 751 mmHg 52%
    17:00 +33°C° 0 mm 5 mps 752 mmHg 57%
    18:00 +32°C° 0 mm 5 mps 752 mmHg 61%
    19:00 +30°C° 0 mm 5 mps 753 mmHg 66%
    20:00 +30°C° 0 mm 5 mps 753 mmHg 68%
    21:00 +29°C° 0 mm 5 mps 754 mmHg 69%
    22:00 +29°C° 0 mm 5 mps 754 mmHg 71%
    23:00 +29°C° 0 mm 5 mps 754 mmHg 72%

    Day after tomorrow, 18 January, Friday

    Time Temperature Precipitation Wind Pressure Humidity
    00:00 +28°C° 0 mm 5 mps 754 mmHg 72%
    01:00 +28°C° 0 mm 4 mps 753 mmHg 73%
    02:00 +28°C° 0 mm 4 mps 753 mmHg 73%
    03:00 +28°C° 0 mm 4 mps 753 mmHg 73%
    04:00 +28°C° 0 mm 4 mps 753 mmHg 73%
    05:00 +28°C° 0 mm 3 mps 753 mmHg 73%
    06:00 +28°C° 0 mm 3 mps 753 mmHg 72%
    07:00 +28°C° 0 mm 3 mps 754 mmHg 71%
    08:00 +29°C° 0 mm 2 mps 754 mmHg 65%
    09:00 +31°C° 0 mm 2 mps 754 mmHg 59%
    10:00 +32°C° 0 mm 2 mps 754 mmHg 53%
    11:00 +34°C° 0 mm 2 mps 754 mmHg 50%
    12:00 +35°C° 0 mm 2 mps 753 mmHg 48%
    13:00 +36°C° 0 mm 2 mps 752 mmHg 45%
    14:00 +35°C° 0 mm 3 mps 751 mmHg 48%
    15:00 +35°C° 0 mm 4 mps 751 mmHg 51%
    16:00 +34°C° 0 mm 6 mps 750 mmHg 54%
    17:00 +33°C° 0 mm 6 mps 751 mmHg 59%
    18:00 +32°C° 0 mm 6 mps 752 mmHg 63%
    19:00 +30°C° 0 mm 6 mps 752 mmHg 67%
    20:00 +30°C° 0 mm 6 mps 753 mmHg 67%
    21:00 +29°C° 0 mm 6 mps 753 mmHg 68%
    22:00 +29°C° 0 mm 5 mps 754 mmHg 68%
    23:00 +29°C° 0 mm 5 mps 753 mmHg 69%

    19 January, Saturday

    Time Temperature Precipitation Wind Pressure Humidity
    00:00 +29°C° 0 mm 4 mps 753 mmHg 69%
    01:00 +28°C° 0 mm 4 mps 753 mmHg 69%
    02:00 +28°C° 0 mm 4 mps 753 mmHg 70%
    03:00 +28°C° 0 mm 3 mps 752 mmHg 71%
    04:00 +27°C° 0 mm 3 mps 752 mmHg 72%
    05:00 +28°C° 0 mm 3 mps 753 mmHg 71%
    06:00 +28°C° 0 mm 3 mps 753 mmHg 71%
    07:00 +28°C° 0 mm 3 mps 754 mmHg 71%
    08:00 +29°C° 0 mm 2 mps 754 mmHg 65%
    09:00 +31°C° 0 mm 2 mps 754 mmHg 59%
    10:00 +32°C° 0 mm 2 mps 754 mmHg 54%
    11:00 +34°C° 0 mm 2 mps 753 mmHg 50%
    12:00 +35°C° 0 mm 2 mps 753 mmHg 47%
    13:00 +36°C° 0 mm 2 mps 752 mmHg 44%
    14:00 +36°C° 0 mm 3 mps 751 mmHg 46%
    15:00 +35°C° 0 mm 4 mps 751 mmHg 49%
    16:00 +35°C° 0 mm 5 mps 750 mmHg 51%
    17:00 +33°C° 0 mm 5 mps 751 mmHg 57%
    18:00 +32°C° 0 mm 6 mps 751 mmHg 63%
    19:00 +30°C° 0 mm 6 mps 752 mmHg 68%
    20:00 +30°C° 0 mm 6 mps 752 mmHg 68%
    21:00 +29°C° 0 mm 6 mps 753 mmHg 69%
    22:00 +29°C° 0 mm 5 mps 753 mmHg 69%
    23:00 +29°C° 0 mm 5 mps 753 mmHg 69%

    20 January, Sunday

    Time Temperature Precipitation Wind Pressure Humidity
    00:00 +29°C° 0 mm 4 mps 753 mmHg 69%
    01:00 +28°C° 0 mm 4 mps 753 mmHg 69%
    02:00 +28°C° 0 mm 4 mps 753 mmHg 69%
    03:00 +28°C° 0 mm 3 mps 752 mmHg 70%
    04:00 +28°C° 0 mm 3 mps 752 mmHg 70%
    05:00 +28°C° 0 mm 3 mps 753 mmHg 70%
    06:00 +28°C° 0 mm 2 mps 753 mmHg 70%
    07:00 +28°C° 0 mm 2 mps 754 mmHg 70%
    08:00 +29°C° 0 mm 2 mps 754 mmHg 64%
    09:00 +31°C° 0 mm 1 mps 754 mmHg 58%
    10:00 +33°C° 0 mm 1 mps 754 mmHg 52%
    11:00 +34°C° 0 mm 1 mps 753 mmHg 48%
    12:00 +36°C° 0 mm 2 mps 752 mmHg 45%
    13:00 +37°C° 0 mm 2 mps 751 mmHg 42%
    14:00 +36°C° 0 mm 3 mps 751 mmHg 45%
    15:00 +36°C° 0 mm 4 mps 751 mmHg 47%
    16:00 +35°C° 0 mm 5 mps 750 mmHg 50%
    17:00 +34°C° 0 mm 5 mps 751 mmHg 56%
    18:00 +32°C° 0 mm 6 mps 751 mmHg 62%
    19:00 +30°C° 0 mm 6 mps 752 mmHg 68%
    20:00 +29°C° 0 mm 6 mps 753 mmHg 69%
    21:00 +29°C° 0 mm 6 mps 753 mmHg 70%
    22:00 +29°C° 0 mm 6 mps 754 mmHg 70%
    23:00 +29°C° 0 mm 5 mps 754 mmHg 70%

    21 January, Monday

    Time Temperature Precipitation Wind Pressure Humidity
    00:00 +28°C° 0 mm 5 mps 754 mmHg 70%
    01:00 +28°C° 0 mm 5 mps 753 mmHg 70%
    02:00 +28°C° 0 mm 4 mps 753 mmHg 71%
    03:00 +28°C° 0 mm 4 mps 753 mmHg 71%
    04:00 +28°C° 0 mm 4 mps 753 mmHg 72%
    05:00 +28°C° 0 mm 3 mps 754 mmHg 72%
    06:00 +28°C° 0 mm 3 mps 754 mmHg 71%
    07:00 +28°C° 0 mm 3 mps 755 mmHg 71%
    08:00 +29°C° 0 mm 3 mps 755 mmHg 65%
    09:00 +31°C° 0 mm 3 mps 755 mmHg 60%
    10:00 +33°C° 0 mm 3 mps 755 mmHg 54%
    11:00 +34°C° 0 mm 3 mps 755 mmHg 52%
    12:00 +35°C° 0 mm 3 mps 754 mmHg 50%
    13:00 +35°C° 0 mm 3 mps 753 mmHg 49%
    14:00 +35°C° 0 mm 4 mps 753 mmHg 51%
    15:00 +34°C° 0 mm 5 mps 752 mmHg 53%
    16:00 +33°C° 0 mm 6 mps 752 mmHg 55%
    17:00 +32°C° 0 mm 6 mps 752 mmHg 60%
    18:00 +30°C° 0 mm 6 mps 753 mmHg 64%
    19:00 +29°C° 0 mm 6 mps 753 mmHg 69%
    20:00 +29°C° 0 mm 6 mps 754 mmHg 70%
    21:00 +29°C° 0 mm 6 mps 754 mmHg 72%
    22:00 +29°C° 0 mm 6 mps 755 mmHg 73%
    23:00 +28°C° 0 mm 5 mps 755 mmHg 72%
    Show more